Birmingham, AL

7:42 PM CDT on August 17, 2017 (GMT -0500)
Birmingham International

Weather History for KBHM - December, 2014

Change the Weather History Date:

Friday, December 12, 2014

  Actual Average Record
Temperature  
Mean Temperature 43 °F 47 °F  
Max Temperature 57 °F 56 °F 78 °F (1971)
Min Temperature 28 °F 37 °F 4 °F (1962)
Degree Days  
Heating Degree Days 22 19  
Month to date heating degree days 141 207  
Since 1 July heating degree days 703 665  
Moisture  
Dew Point 27 °F    
Average Humidity 59    
Maximum Humidity 92    
Minimum Humidity 25    
Precipitation  
Precipitation 0.00 in 0.15 in 2.06 in (1935)
Month to date precipitation 1.79 1.92  
Year to date precipitation 44.41 51.19  
Snow  
Snow 0.00 in 0.00 in - ()
Month to date snowfall 0.0 0.0  
Since 1 July snowfall 0.0 0.0  
Snow Depth 0.00 in    
Sea Level Pressure  
Sea Level Pressure 30.35 in    
Wind  
Wind Speed 3 mph (North)    
Max Wind Speed 12 mph    
Max Gust Speed 14 mph    
Visibility 9 miles    
Events      
T = Trace of Precipitation, MM = Missing Value Source: NWS Daily Summary

Daily Weather History Graph

Daily Weather History Graph

Search for Another Location

Airport or City:

Trip Planner

Search our weather history database for the weather conditions in past years. The results will help you decide how hot, cold, wet, or windy it might be!

Date:

Astronomy

Dec. 12, 2014 Rise Set
Actual Time 6:41 AM CST 4:39 PM CST
Civil Twilight 6:14 AM CST 5:07 PM CST
Nautical Twilight 5:43 AM CST 5:38 PM CST
Astronomical Twilight 5:13 AM CST 6:08 PM CST
Moon 10:32 PM CST (12/12) 10:48 AM CST (12/12)
Length of Visible Light 10h 52m
Length of Day
9h 57m
Waning Gibbous, 67% of the Moon is Illuminated
Dec 12
Waning Gibbous
Dec 14
Last Quarter
Dec 21
New
Dec 28
First Quarter
Jan 4
Full

Hourly Weather History & Observations

Time (CST) Temp. Windchill Dew Point Humidity Pressure Visibility Wind Dir Wind Speed Gust Speed Precip Events Conditions
12:53 AM 32.0 °F - 27.0 °F 82% 30.31 in 10.0 mi Calm Calm - N/A   Clear
1:53 AM 30.0 °F - 26.1 °F 85% 30.33 in 8.0 mi Calm Calm - N/A   Clear
2:53 AM 30.0 °F - 27.0 °F 88% 30.33 in 8.0 mi Calm Calm - N/A   Clear
3:53 AM 30.0 °F - 27.0 °F 88% 30.34 in 8.0 mi Calm Calm - N/A   Clear
4:53 AM 30.0 °F - 26.1 °F 85% 30.35 in 8.0 mi Calm Calm - N/A   Clear
5:53 AM 30.0 °F - 26.1 °F 85% 30.38 in 8.0 mi Calm Calm - N/A   Clear
6:53 AM 28.9 °F - 26.1 °F 89% 30.39 in 8.0 mi Calm Calm - N/A   Partly Cloudy
7:53 AM 34.0 °F 31.0 °F 28.0 °F 79% 30.40 in 7.0 mi NNE 3.5 mph - N/A   Partly Cloudy
8:53 AM 39.0 °F 33.4 °F 28.0 °F 65% 30.42 in 8.0 mi North 8.1 mph - N/A   Partly Cloudy
9:53 AM 43.0 °F 38.8 °F 27.0 °F 53% 30.41 in 10.0 mi North 6.9 mph - N/A   Clear
10:53 AM 48.0 °F - 26.1 °F 42% 30.39 in 10.0 mi North 6.9 mph - N/A   Clear
11:53 AM 52.0 °F - 24.1 °F 34% 30.35 in 10.0 mi NNW 6.9 mph - N/A   Clear
12:53 PM 54.0 °F - 21.9 °F 29% 30.32 in 10.0 mi NNW 6.9 mph - N/A   Clear
1:53 PM 55.0 °F - 21.9 °F 28% 30.31 in 10.0 mi NW 9.2 mph - N/A   Clear
2:53 PM 57.0 °F - 23.0 °F 27% 30.30 in 10.0 mi North 5.8 mph - N/A   Clear
3:53 PM 55.0 °F - 24.1 °F 30% 30.31 in 10.0 mi NNW 5.8 mph - N/A   Clear
4:53 PM 48.9 °F - 26.1 °F 41% 30.32 in 10.0 mi North 4.6 mph - N/A   Clear
5:53 PM 45.0 °F - 28.0 °F 52% 30.33 in 10.0 mi Calm Calm - N/A   Clear
6:53 PM 43.0 °F - 28.9 °F 58% 30.34 in 10.0 mi Calm Calm - N/A   Clear
7:53 PM 39.9 °F - 28.9 °F 65% 30.34 in 10.0 mi Calm Calm - N/A   Clear
8:53 PM 39.0 °F - 28.9 °F 67% 30.34 in 10.0 mi Calm Calm - N/A   Clear
9:53 PM 36.0 °F - 28.9 °F 76% 30.34 in 10.0 mi Calm Calm - N/A   Clear
10:53 PM 35.1 °F 32.2 °F 28.9 °F 78% 30.33 in 10.0 mi ESE 3.5 mph - N/A   Clear
11:53 PM 35.1 °F - 28.9 °F 78% 30.32 in 10.0 mi Calm Calm - N/A   Clear